Weather History for EGQL - October, 2012

Change the Weather History Date:

Monday, October 22, 2012

  Actual Average Record
Temperature  
Mean Temperature 42 °F -  
Max Temperature 50 °F 49 °F 60 °F (1999)
Min Temperature 34 °F 38 °F 30 °F (2000)
Degree Days  
Heating Degree Days 23    
Moisture  
Dew Point 43 °F    
Average Humidity 92    
Maximum Humidity 100    
Minimum Humidity 73    
Precipitation  
Precipitation 0.00 in - - ()
Sea Level Pressure  
Sea Level Pressure 30.32 in    
Wind  
Wind Speed 3 mph ()    
Max Wind Speed 9 mph    
Max Gust Speed -    
Visibility 4.4 miles    
Events Fog    
Averages and records for this station are not official NWS values.
T = Trace of Precipitation, MM = Missing Value Source: Averaged Metar Reports

Daily Weather History Graph

Daily Weather History Graph

Search for Another Location

Airport or City:

Trip Planner

Search our weather history database for the weather conditions in past years. The results will help you decide how hot, cold, wet, or windy it might be!

Date:

Astronomy

Oct. 22, 2012 Rise Set
Actual Time 7:58 AM BST 5:51 PM BST
Civil Twilight 7:20 AM BST 6:30 PM BST
Nautical Twilight 6:36 AM BST 7:14 PM BST
Astronomical Twilight 5:52 AM BST 7:57 PM BST
Moon 3:02 PM BST (10/22) No Moon Set
Length of Visible Light 11h 10m
Length of Day
9h 52m
First Quarter, 53% of the Moon is Illuminated
Oct 22
First Quarter
Oct 29
Full
Nov 7
Last Quarter
Nov 13
New
Nov 20
First Quarter

Hourly Weather History & Observations

Time (BST) Temp. Windchill Dew Point Humidity Pressure Visibility Wind Dir Wind Speed Gust Speed Precip Events Conditions
12:50 AM 36 °F - 36 °F 100% 30.26 in 0 mi WNW 3.5 mph - - Fog Partial Fog
12:50 AM 35.6 °F 32.8 °F 35.6 °F 100% 30.24 in 0.1 mi WNW 3.5 mph - N/A Fog Fog
1:50 AM 35.6 °F - 35.6 °F 100% 30.24 in 0.1 mi WNW 2.3 mph - N/A Fog Fog
2:50 AM 33.8 °F - 33.8 °F 100% 30.24 in 0.1 mi NW 1.2 mph - N/A Fog Fog
3:50 AM 39 °F - 38 °F 97% 30.27 in 1 mi NW 1.2 mph - - Fog Light Fog
3:50 AM 39.2 °F - 39.2 °F 100% 30.24 in 1.2 mi NW 1.2 mph - N/A Fog Fog
4:50 AM 42.8 °F - 41.0 °F 93% 30.27 in 3.1 mi WNW 2.3 mph - N/A   Overcast
5:50 AM 42.8 °F - 41.0 °F 93% 30.27 in 3.1 mi WNW 2.3 mph - N/A   Overcast
6:50 AM 43 °F - 43 °F 100% 30.30 in 3 mi North 1.2 mph - -   Mist
6:50 AM 42.8 °F - 42.8 °F 100% 30.27 in 3.1 mi North 1.2 mph - N/A   Overcast
7:50 AM 44.6 °F - 42.8 °F 93% 30.30 in 2.8 mi SW 1.2 mph - N/A   Mostly Cloudy
8:21 AM 44.6 °F - 44.6 °F 100% 30.30 in 0.6 mi NNE 1.2 mph - N/A Fog Patches of Fog
8:41 AM 44.6 °F - 44.6 °F 100% 30.30 in 0.4 mi NW 2.3 mph - N/A Fog Fog
8:50 AM 44.6 °F - 44.6 °F 100% 30.30 in 0.9 mi West 2.3 mph - N/A Fog Patches of Fog
9:12 AM 44.6 °F - 44.6 °F 100% 30.30 in 1.1 mi WNW 1.2 mph - N/A   Mostly Cloudy
9:33 AM 46.4 °F - 44.6 °F 93% 30.30 in 1.6 mi North 1.2 mph - N/A   Mostly Cloudy
9:50 AM 46.4 °F - 46.4 °F 100% 30.30 in 1.9 mi NNE 1.2 mph - N/A   Mostly Cloudy
10:17 AM 46.4 °F 43.5 °F 46.4 °F 100% 30.33 in 4.3 mi East 5.8 mph - N/A   Mostly Cloudy
10:50 AM 46.4 °F 41.9 °F 46.4 °F 100% 30.33 in 6.2 mi East 9.2 mph - N/A   Mostly Cloudy
11:50 AM 46.4 °F 42.9 °F 44.6 °F 93% 30.33 in 6.2 mi East 6.9 mph - N/A   Mostly Cloudy
12:50 PM 49 °F - 46 °F 83% 30.35 in 22 mi ENE 6.9 mph - -   Partly Cloudy
12:50 PM 48.2 °F - 46.4 °F 93% 30.33 in 6.2 mi ENE 6.9 mph - N/A   Mostly Cloudy
1:50 PM 50.0 °F - 46.4 °F 87% 30.33 in 6.2 mi ENE 8.1 mph - N/A   Mostly Cloudy
2:50 PM 50.0 °F - 46.4 °F 87% 30.33 in 6.2 mi East 6.9 mph - N/A   Mostly Cloudy
3:50 PM 50 °F - 44 °F 73% 30.36 in 22 mi ENE 5.8 mph - -   Mostly Cloudy
3:50 PM 50.0 °F - 44.6 °F 82% 30.33 in 6.2 mi ENE 5.8 mph - N/A   Mostly Cloudy
4:50 PM 50.0 °F - 44.6 °F 82% 30.33 in 6.2 mi NE 4.6 mph - N/A   Mostly Cloudy
5:50 PM 48.2 °F - 44.6 °F 87% 30.33 in 6.2 mi ENE 6.9 mph - N/A   Mostly Cloudy
6:50 PM 48 °F - 44 °F 83% 30.37 in 19 mi NE 5.8 mph - -   Overcast
6:50 PM 48.2 °F - 44.6 °F 87% 30.36 in 6.2 mi NE 5.8 mph - N/A   Overcast
7:50 PM 48.2 °F - 44.6 °F 87% 30.36 in 6.2 mi NNE 5.8 mph - N/A   Overcast
8:50 PM 48.2 °F - 44.6 °F 87% 30.36 in 6.2 mi NNE 4.6 mph - N/A   Overcast
9:50 PM 48 °F - 44 °F 82% 30.40 in 16 mi NNE 8.1 mph - -   Overcast
9:50 PM 48.2 °F - 44.6 °F 87% 30.39 in 6.2 mi NNE 8.1 mph - N/A   Overcast
10:50 PM 48.2 °F - 44.6 °F 87% 30.39 in 6.2 mi NE 8.1 mph - N/A   Overcast
11:50 PM 48.2 °F - 44.6 °F 87% 30.39 in 6.2 mi NE 8.1 mph - N/A   Overcast